Location: Castelbiague
(43.0361°N, 0.9246°E)
Time: 14:25:09
(UTC+00:00)

Cosmos 1953 - Pass Details

Date: 17 June 2021
Orbit: 538 x 557 km, 82.5° (Epoch: 30 July)

Event Time Altitude Azimuth Distance (km) Brightness Sun altitude
Rises 21:01:57 0° 355° (N) 2,752 6.9 -12.3°
Reaches altitude 10° 21:04:10 10° 359° (N) 1,852 5.8 -12.5°
Maximum altitude 21:08:12 60° 80° (E) 643 2.5 -13.0°
Enters shadow 21:10:46 21° 155° (SSE) 1,279 3.6 -13.3°
